Location: Bettgenhausen
(50.6463°N, 7.5681°E)
Time: 03:29:59
(UTC+00:00)

SPOT 3 Rocket - Pass Details

Date: 27 February 2020
Orbit: 779 x 795 km, 98.8° (Epoch: 09 April)

Event Time Altitude Azimuth Distance (km) Brightness Sun altitude
Exits shadow 19:13:10 28° 153° (SSE) 1,462 4.6 -20.7°
Maximum altitude 19:16:00 77° 72° (ENE) 820 3.4 -21.2°
Drops below altitude 10° 19:21:15 10° 347° (NNW) 2,375 6.4 -22.0°
Sets 19:23:35 0° 346° (NNW) 3,311 7.2 -22.3°
